Time,TemperatureF,DewpointF,PressureIn,WindDirection,WindDirectionDegrees,WindSpeedMPH,WindSpeedGustMPH,Humidity,HourlyPrecipIn,Conditions,Clouds,dailyrainin,SoftwareType,DateUTC
2013-10-08 02:00:00,41.0,-99.9,-100.00,North,-999,-999.0,-999.0,-999,-99.99,,,-99.99,,2013-10-08 08:00:00,
2013-10-08 02:52:00,41.0,-99.9,-100.00,North,-999,-999.0,-999.0,-999,-99.99,,,-99.99,,2013-10-08 08:52:00,
2013-10-08 03:00:00,40.0,20.0,-100.00,North,-999,-999.0,-999.0,45,-99.99,,,0.00,,2013-10-08 09:00:00,
2013-10-08 03:53:00,40.0,20.0,-100.00,North,-999,-999.0,-999.0,45,-99.99,,,0.00,,2013-10-08 09:53:00,
2013-10-08 05:00:00,40.0,21.0,-100.00,North,-999,-999.0,-999.0,45,-99.99,,,0.00,,2013-10-08 11:00:00,
2013-10-08 05:52:00,40.0,21.0,-100.00,North,-999,-999.0,-999.0,45,-99.99,,,0.00,,2013-10-08 11:52:00,
2013-10-08 06:00:00,38.0,18.0,-100.00,North,-999,-999.0,-999.0,45,-99.99,,,0.00,,2013-10-08 12:00:00,
2013-10-08 06:52:00,38.0,18.0,-100.00,North,-999,-999.0,-999.0,45,-99.99,,,0.00,,2013-10-08 12:52:00,
2013-10-08 07:00:00,38.0,19.0,-100.00,North,-999,-999.0,-999.0,45,-99.99,,,0.00,,2013-10-08 13:00:00,
2013-10-08 07:52:00,38.0,19.0,-100.00,North,-999,-999.0,-999.0,45,-99.99,,,0.00,,2013-10-08 13:52:00,
2013-10-08 09:00:00,45.0,25.0,-100.00,North,-999,-999.0,-999.0,45,-99.99,,,0.00,,2013-10-08 15:00:00,
2013-10-08 09:53:00,45.0,25.0,-100.00,North,-999,-999.0,-999.0,45,-99.99,,,0.00,,2013-10-08 15:53:00,
2013-10-08 10:00:00,50.0,29.0,-100.00,North,-999,-999.0,-999.0,45,-99.99,,,0.00,,2013-10-08 16:00:00,
2013-10-08 10:53:00,50.0,29.0,-100.00,North,-999,-999.0,-999.0,45,-99.99,,,0.00,,2013-10-08 16:53:00,
2013-10-08 16:00:00,52.0,32.0,-100.00,North,-999,-999.0,-999.0,46,-99.99,,,0.00,,2013-10-08 22:00:00,
2013-10-08 16:58:00,52.0,32.0,-100.00,North,-999,-999.0,-999.0,46,-99.99,,,0.00,,2013-10-08 22:58:00,
2013-10-08 17:00:00,50.0,31.0,-100.00,North,-999,-999.0,-999.0,46,-99.99,,,-99.99,,2013-10-08 23:00:00,
2013-10-08 17:52:00,50.0,31.0,-100.00,North,-999,-999.0,-999.0,46,-99.99,,,-99.99,,2013-10-08 23:52:00,
2013-10-08 18:00:00,49.0,30.0,-100.00,North,-999,-999.0,-999.0,49,-99.99,,,0.00,,2013-10-09 00:00:00,
2013-10-08 18:52:00,49.0,30.0,-100.00,North,-999,-999.0,-999.0,49,-99.99,,,0.00,,2013-10-09 00:52:00,
2013-10-08 20:00:00,40.0,24.0,-100.00,North,-999,-999.0,-999.0,53,-99.99,,,0.00,,2013-10-09 02:00:00,
2013-10-08 20:52:00,40.0,24.0,-100.00,North,-999,-999.0,-999.0,53,-99.99,,,0.00,,2013-10-09 02:52:00,
2013-10-08 22:00:00,36.0,21.0,-100.00,North,-999,-999.0,-999.0,53,-99.99,,,0.00,,2013-10-09 04:00:00,
2013-10-08 22:54:00,36.0,21.0,-100.00,North,-999,-999.0,-999.0,53,-99.99,,,0.00,,2013-10-09 04:54:00,